Weather History for Saint Simons Island, GA

Change the Weather History Date:

Monday, June 10, 2013

  Actual Average Record
Temperature  
Mean Temperature 79 °F 80 °F  
Max Temperature 86 °F 87 °F 101 °F (1954)
Min Temperature 72 °F 73 °F 63 °F (1988)
Degree Days  
Heating Degree Days 0 0  
Month to date heating degree days 0 0  
Since 1 June heating degree days 0 0  
Since 1 July heating degree days 1268 1488  
Cooling Degree Days 14 15  
Month to date cooling degree days 153 140  
Year to date cooling degree days 554 582  
Since 1 June cooling degree days 153 140  
Growing Degree Days 28 (Base 50)    
Moisture  
Dew Point 73 °F    
Average Humidity 82    
Maximum Humidity 94    
Minimum Humidity 69    
Precipitation  
Precipitation 0.93 in 0.15 in 6.68 in (1999)
Month to date precipitation 3.12 1.50  
Year to date precipitation 15.54 16.42  
Snow  
Snow 0.00 in - 0.00 in ()
Month to date snowfall 0.0  
Since 1 June snowfall 0.0  
Since 1 July snowfall 0.0  
Snow Depth 0.00 in    
Sea Level Pressure  
Sea Level Pressure 30.07 in    
Wind  
Wind Speed 8 mph (South)    
Max Wind Speed 24 mph    
Max Gust Speed 29 mph    
Visibility 9 miles    
Events Rain , Thunderstorm    
T = Trace of Precipitation, MM = Missing Value Source: NWS Daily Summary

Daily Weather History Graph

Daily Weather History Graph

Search for Another Location

Airport:

Trip Planner

Search our weather history database for the weather conditions in past years. The results will help you decide how hot, cold, wet, or windy it might be!

Date:

Astronomy

Jun. 10, 2013 Rise Set
Actual Time 6:21 AM EDT 8:29 PM EDT
Civil Twilight 5:53 AM EDT 8:57 PM EDT
Nautical Twilight 5:19 AM EDT 9:30 PM EDT
Astronomical Twilight 4:43 AM EDT 10:07 PM EDT
Moon 8:03 AM EDT (6/10) 10:01 PM EDT (6/10)
Length of Visible Light 15h 03m
Length of Day
14h 08m
Waxing Crescent, 4% of the Moon is Illuminated
Jun 10
Waxing Crescent
Jun 16
First Quarter
Jun 23
Full
Jun 30
Last Quarter
Jul 8
New

Hourly Weather History & Observations

Time (EDT) Temp. Heat Index Dew Point Humidity Pressure Visibility Wind Dir Wind Speed Gust Speed Precip Events Conditions
12:53 AM 79.0 °F - 73.9 °F 84% 30.11 in 10.0 mi South 9.2 mph - N/A   Clear
1:53 AM 79.0 °F - 73.9 °F 84% 30.10 in 10.0 mi South 10.4 mph - N/A   Clear
2:35 AM 78.8 °F - 73.4 °F 83% 30.09 in 10.0 mi South 9.2 mph - N/A   Mostly Cloudy
2:53 AM 79.0 °F - 73.9 °F 84% 30.09 in 10.0 mi South 8.1 mph 17.3 mph N/A   Mostly Cloudy
3:23 AM 78.8 °F - 73.4 °F 83% 30.08 in 10.0 mi SSE 8.1 mph 16.1 mph N/A   Mostly Cloudy
3:31 AM 78.8 °F - 73.4 °F 83% 30.08 in 10.0 mi South 9.2 mph 16.1 mph N/A   Scattered Clouds
3:53 AM 78.1 °F - 73.9 °F 87% 30.07 in 10.0 mi South 5.8 mph - N/A   Scattered Clouds
4:53 AM 78.1 °F - 73.9 °F 87% 30.08 in 10.0 mi South 10.4 mph 19.6 mph N/A   Mostly Cloudy
5:53 AM 78.1 °F - 73.9 °F 87% 30.09 in 10.0 mi Variable 6.9 mph - N/A   Overcast
6:15 AM 78.8 °F - 75.2 °F 89% 30.10 in 10.0 mi Variable 4.6 mph - N/A   Overcast
6:53 AM 78.1 °F - 75.0 °F 90% 30.10 in 10.0 mi SSW 4.6 mph - N/A   Overcast
7:23 AM 78.8 °F - 73.4 °F 83% 30.10 in 10.0 mi SSW 6.9 mph - N/A   Scattered Clouds
7:53 AM 79.0 °F - 73.9 °F 84% 30.10 in 10.0 mi South 5.8 mph - N/A   Partly Cloudy
8:53 AM 80.1 °F 85.1 °F 75.0 °F 85% 30.11 in 10.0 mi SSW 6.9 mph - N/A   Partly Cloudy
9:53 AM 82.0 °F 86.7 °F 72.0 °F 71% 30.11 in 10.0 mi SSW 11.5 mph 16.1 mph N/A   Partly Cloudy
10:32 AM 82.4 °F 88.2 °F 73.4 °F 74% 30.10 in 10.0 mi SSW 6.9 mph - N/A   Mostly Cloudy
10:53 AM 84.0 °F 90.2 °F 73.0 °F 69% 30.11 in 10.0 mi SW 10.4 mph - N/A   Mostly Cloudy
11:13 AM 84.2 °F 90.9 °F 73.4 °F 70% 30.10 in 10.0 mi South 6.9 mph 16.1 mph N/A   Scattered Clouds
11:53 AM 84.0 °F 91.9 °F 75.0 °F 74% 30.09 in 10.0 mi SSE 8.1 mph - N/A   Partly Cloudy
12:53 PM 82.9 °F 90.2 °F 75.0 °F 77% 30.09 in 10.0 mi SSE 12.7 mph - N/A   Clear
1:53 PM 84.9 °F 93.3 °F 75.0 °F 72% 30.07 in 10.0 mi SSE 10.4 mph 18.4 mph N/A   Clear
2:53 PM 84.9 °F 93.3 °F 75.0 °F 72% 30.06 in 10.0 mi SSE 9.2 mph - N/A   Clear
3:20 PM 84.2 °F 92.3 °F 75.2 °F 74% 30.05 in 10.0 mi SSE 11.5 mph - N/A Thunderstorm Thunderstorm
3:39 PM 80.6 °F 86.2 °F 75.2 °F 84% 30.04 in 4.0 mi South 10.4 mph - 0.02 in Rain Light Rain
3:53 PM 81.0 °F 87.9 °F 77.0 °F 88% 30.04 in 9.0 mi South 11.5 mph 18.4 mph 0.04 in Rain Light Rain
4:53 PM 82.9 °F 90.2 °F 75.0 °F 77% 30.02 in 10.0 mi South 11.5 mph 19.6 mph 0.00 in   Clear
5:53 PM 81.0 °F 86.2 °F 73.9 °F 79% 30.01 in 10.0 mi SSE 10.4 mph 17.3 mph N/A   Clear
6:35 PM 80.6 °F 85.4 °F 73.4 °F 79% 29.99 in 10.0 mi SSE 6.9 mph 17.3 mph N/A Thunderstorm Clear
6:53 PM 81.0 °F 86.2 °F 73.9 °F 79% 30.01 in 10.0 mi South 13.8 mph 23.0 mph N/A Thunderstorm Clear
7:33 PM 80.6 °F 85.4 °F 73.4 °F 79% 30.04 in 2.5 mi SW 16.1 mph 21.9 mph 0.06 in Rain , Thunderstorm Thunderstorms and Rain
7:40 PM 73.4 °F - 69.8 °F 88% 30.05 in 0.8 mi WSW 20.7 mph 28.8 mph 0.32 in Rain , Thunderstorm Heavy Thunderstorms and Rain
7:53 PM 72.0 °F - 68.0 °F 87% 30.06 in 1.0 mi West 8.1 mph 20.7 mph 0.79 in Rain , Thunderstorm Heavy Thunderstorms and Rain
8:01 PM 71.6 °F - 69.8 °F 94% 30.06 in 3.0 mi NW 4.6 mph - 0.08 in Rain , Thunderstorm Light Thunderstorms and Rain
8:12 PM 71.6 °F - 69.8 °F 94% 30.04 in 9.0 mi Calm Calm - 0.10 in Rain , Thunderstorm Light Thunderstorms and Rain
8:43 PM 71.6 °F - 69.8 °F 94% 30.04 in 10.0 mi East 4.6 mph - 0.10 in   Clear
8:53 PM 73.0 °F - 71.1 °F 93% 30.05 in 10.0 mi ESE 3.5 mph - 0.10 in   Clear
9:53 PM 73.9 °F - 72.0 °F 93% 30.07 in 10.0 mi Calm Calm - N/A   Clear
10:53 PM 75.0 °F - 73.0 °F 94% 30.08 in 10.0 mi Calm Calm - N/A   Clear
11:53 PM 75.0 °F - 73.0 °F 94% 30.07 in 10.0 mi Calm Calm - N/A   Clear